Location: Cleveland
(41.4990°N, 81.6960°W)
Time: 17:20:45
(UTC-04:00)

N. Korean satellite - Visible Passes

Search period start: 24 September 2022 00:00
Search period end: 04 October 2022 00:00
Orbit: 428 x 468 km, 97.3° (Epoch: 24 September)

Date Brightness Start Highest point End Pass type
(mag) Time Alt. Az. Time Alt. Az. Time Alt. Az.
24 Sep 6.6 06:38:36 10° NNE 06:41:53 71° ESE 06:45:08 10° S visible
25 Sep 9.1 06:03:37 10° NE 06:06:13 22° E 06:08:48 10° SSE visible
27 Sep 7.7 06:24:37 10° NNE 06:27:46 42° E 06:30:53 10° S visible
28 Sep 9.6 05:50:05 10° ENE 05:51:56 14° E 05:53:46 10° SE visible
29 Sep 6.3 06:45:49 10° NNE 06:49:07 89° W 06:52:22 10° SSW visible
30 Sep 8.7 06:10:29 10° NE 06:13:19 26° E 06:16:08 10° SSE visible
02 Oct 7.2 06:31:17 10° NNE 06:34:30 54° E 06:37:42 10° S visible
03 Oct 9.5 05:56:17 10° NE 05:58:33 17° E 06:00:47 10° SE visible
